TimeEST,TemperatureF,Dew PointF,Humidity,Sea Level PressureIn,VisibilityMPH,Wind Direction,Wind SpeedMPH,Gust SpeedMPH,PrecipitationIn,Events,Conditions,WindDirDegrees,DateUTC
12:15 AM,39.2,24.8,56,29.99,10.0,South,4.6,-,N/A,,Clear,170,2014-01-02 05:15:00
12:35 AM,39.2,24.8,56,29.98,10.0,South,4.6,-,N/A,,Clear,180,2014-01-02 05:35:00
12:55 AM,39.2,24.8,56,29.98,10.0,South,4.6,-,N/A,,Mostly Cloudy,190,2014-01-02 05:55:00
1:15 AM,39.2,26.6,61,29.97,10.0,South,4.6,-,N/A,,Overcast,180,2014-01-02 06:15:00
1:35 AM,39.2,26.6,61,29.97,10.0,South,6.9,-,N/A,,Overcast,190,2014-01-02 06:35:00
1:55 AM,39.2,28.4,65,29.98,10.0,SSW,6.9,-,N/A,,Overcast,200,2014-01-02 06:55:00
2:15 AM,41.0,28.4,61,29.97,10.0,SSW,6.9,-,N/A,,Overcast,200,2014-01-02 07:15:00
2:35 AM,41.0,28.4,61,29.96,10.0,SSW,8.1,-,N/A,,Overcast,200,2014-01-02 07:35:00
2:55 AM,41.0,28.4,61,29.96,10.0,SSW,6.9,-,N/A,,Overcast,210,2014-01-02 07:55:00
3:15 AM,41.0,28.4,61,29.96,10.0,SSW,6.9,-,N/A,,Overcast,210,2014-01-02 08:15:00
3:35 AM,41.0,30.2,65,29.96,10.0,SSW,6.9,-,N/A,,Overcast,210,2014-01-02 08:35:00
3:55 AM,41.0,30.2,65,29.94,10.0,SSW,6.9,-,N/A,,Overcast,200,2014-01-02 08:55:00
4:15 AM,41.0,30.2,65,29.93,10.0,SSW,8.1,-,N/A,,Overcast,200,2014-01-02 09:15:00
4:35 AM,39.2,32.0,75,29.93,10.0,SSW,9.2,-,N/A,,Overcast,200,2014-01-02 09:35:00
4:55 AM,39.2,32.0,75,29.91,10.0,SSW,5.8,-,N/A,,Overcast,200,2014-01-02 09:55:00
5:15 AM,39.2,32.0,75,29.89,10.0,South,6.9,-,N/A,,Overcast,190,2014-01-02 10:15:00
5:35 AM,39.2,33.8,81,29.88,10.0,South,8.1,-,N/A,,Overcast,190,2014-01-02 10:35:00
5:55 AM,39.2,33.8,81,29.86,10.0,South,8.1,-,N/A,,Overcast,190,2014-01-02 10:55:00
6:15 AM,39.2,33.8,81,29.86,10.0,South,6.9,-,N/A,,Overcast,190,2014-01-02 11:15:00
6:35 AM,39.2,35.6,87,29.85,10.0,SSW,4.6,-,N/A,,Overcast,200,2014-01-02 11:35:00
6:55 AM,39.2,35.6,87,29.84,7.0,SSW,4.6,-,N/A,,Overcast,200,2014-01-02 11:55:00
7:15 AM,39.2,35.6,87,29.84,10.0,South,3.5,-,N/A,,Overcast,180,2014-01-02 12:15:00
7:35 AM,39.2,35.6,87,29.83,5.0,South,5.8,-,N/A,,Overcast,170,2014-01-02 12:35:00
7:55 AM,39.2,35.6,87,29.82,7.0,South,4.6,-,N/A,,Overcast,170,2014-01-02 12:55:00
8:15 AM,39.2,35.6,87,29.81,7.0,SSW,4.6,-,N/A,,Overcast,200,2014-01-02 13:15:00
8:35 AM,39.2,37.4,93,29.81,3.0,SW,3.5,-,N/A,,Overcast,220,2014-01-02 13:35:00
8:55 AM,39.2,37.4,93,29.80,2.0,SSW,3.5,-,N/A,,Overcast,200,2014-01-02 13:55:00
9:15 AM,39.2,37.4,93,29.80,2.0,SSW,5.8,-,N/A,,Overcast,210,2014-01-02 14:15:00
9:35 AM,39.2,37.4,93,29.80,1.8,SW,5.8,-,N/A,,Overcast,220,2014-01-02 14:35:00
9:55 AM,39.2,37.4,93,29.81,2.0,SW,5.8,-,N/A,,Overcast,230,2014-01-02 14:55:00
10:15 AM,39.2,37.4,93,29.80,4.0,WSW,5.8,-,N/A,,Overcast,240,2014-01-02 15:15:00
10:35 AM,39.2,39.2,100,29.81,7.0,WSW,8.1,-,N/A,,Overcast,250,2014-01-02 15:35:00
10:55 AM,39.2,37.4,93,29.80,7.0,West,8.1,-,N/A,,Overcast,260,2014-01-02 15:55:00
11:15 AM,39.2,37.4,93,29.80,10.0,WNW,10.4,-,N/A,,Overcast,290,2014-01-02 16:15:00
11:35 AM,39.2,37.4,93,29.80,5.0,WNW,13.8,-,N/A,,Overcast,290,2014-01-02 16:35:00
11:55 AM,37.4,33.8,87,29.79,3.0,West,15.0,23.0,N/A,,Overcast,280,2014-01-02 16:55:00
12:15 PM,35.6,33.8,93,29.79,4.0,West,15.0,18.4,N/A,,Overcast,280,2014-01-02 17:15:00
12:35 PM,35.6,33.8,93,29.79,7.0,WNW,11.5,21.9,N/A,,Overcast,290,2014-01-02 17:35:00
12:55 PM,33.8,32.0,93,29.80,4.0,WNW,11.5,-,N/A,,Overcast,290,2014-01-02 17:55:00
1:15 PM,33.8,32.0,93,29.80,3.0,West,15.0,19.6,N/A,,Overcast,280,2014-01-02 18:15:00
1:35 PM,33.8,32.0,93,29.80,2.5,WNW,15.0,24.2,N/A,,Overcast,300,2014-01-02 18:35:00
1:55 PM,32.0,32.0,100,29.81,1.5,WNW,15.0,23.0,N/A,,Overcast,300,2014-01-02 18:55:00
2:15 PM,32.0,30.2,93,29.81,1.2,WNW,15.0,19.6,N/A,,Overcast,300,2014-01-02 19:15:00
2:35 PM,32.0,30.2,93,29.82,3.0,WNW,18.4,25.3,N/A,,Overcast,290,2014-01-02 19:35:00
2:55 PM,30.2,28.4,93,29.84,5.0,WNW,19.6,25.3,N/A,,Overcast,300,2014-01-02 19:55:00
3:15 PM,28.4,28.4,100,29.86,3.0,WNW,21.9,27.6,N/A,,Overcast,300,2014-01-02 20:15:00
3:35 PM,28.4,26.6,93,29.88,2.5,WNW,23.0,29.9,N/A,,Overcast,290,2014-01-02 20:35:00
3:55 PM,26.6,24.8,93,29.90,4.0,WNW,21.9,26.5,N/A,,Overcast,300,2014-01-02 20:55:00
4:15 PM,24.8,23.0,93,29.92,5.0,WNW,19.6,27.6,N/A,,Overcast,290,2014-01-02 21:15:00
4:35 PM,23.0,21.2,93,29.93,5.0,WNW,20.7,28.8,N/A,,Overcast,290,2014-01-02 21:35:00
4:55 PM,23.0,21.2,93,29.95,2.5,West,15.0,23.0,N/A,,Overcast,280,2014-01-02 21:55:00
5:15 PM,23.0,19.4,86,29.96,1.0,WNW,13.8,21.9,N/A,,Overcast,290,2014-01-02 22:15:00
5:35 PM,23.0,19.4,86,29.98,2.5,WNW,17.3,24.2,N/A,,Overcast,290,2014-01-02 22:35:00
5:55 PM,21.2,17.6,86,29.99,1.8,NW,16.1,24.2,N/A,,Overcast,320,2014-01-02 22:55:00
6:15 PM,19.4,17.6,93,30.01,2.0,WNW,13.8,23.0,N/A,,Overcast,300,2014-01-02 23:15:00
6:35 PM,19.4,14.0,80,30.02,4.0,NW,17.3,23.0,N/A,,Overcast,310,2014-01-02 23:35:00
6:55 PM,17.6,12.2,79,30.04,5.0,NW,19.6,28.8,N/A,,Overcast,310,2014-01-02 23:55:00
7:15 PM,17.6,14.0,86,30.06,5.0,NW,13.8,24.2,N/A,,Overcast,310,2014-01-03 00:15:00
7:35 PM,17.6,14.0,86,30.07,4.0,NW,15.0,23.0,N/A,,Overcast,320,2014-01-03 00:35:00
7:55 PM,17.6,14.0,86,30.08,2.5,NW,19.6,25.3,N/A,,Overcast,310,2014-01-03 00:55:00
8:15 PM,17.6,12.2,79,30.10,3.0,NW,19.6,27.6,N/A,,Overcast,310,2014-01-03 01:15:00
8:35 PM,17.6,12.2,79,30.11,4.0,NW,18.4,28.8,N/A,,Overcast,320,2014-01-03 01:35:00
8:55 PM,17.6,12.2,79,30.13,3.0,NNW,17.3,-,N/A,,Overcast,330,2014-01-03 01:55:00
9:15 PM,15.8,12.2,86,30.14,4.0,NW,12.7,23.0,N/A,,Overcast,320,2014-01-03 02:15:00
9:35 PM,15.8,10.4,79,30.15,4.0,NNW,20.7,29.9,N/A,,Overcast,330,2014-01-03 02:35:00
9:55 PM,15.8,10.4,79,30.16,5.0,NNW,13.8,23.0,N/A,,Overcast,330,2014-01-03 02:55:00
10:15 PM,15.8,8.6,73,30.18,7.0,NNW,15.0,25.3,N/A,,Overcast,330,2014-01-03 03:15:00
10:35 PM,14.0,8.6,79,30.19,7.0,NNW,12.7,24.2,N/A,,Overcast,330,2014-01-03 03:35:00
10:55 PM,14.0,8.6,79,30.20,10.0,NNW,10.4,24.2,N/A,,Overcast,330,2014-01-03 03:55:00
11:15 PM,14.0,8.6,79,30.20,10.0,NNW,15.0,19.6,N/A,,Overcast,330,2014-01-03 04:15:00
11:35 PM,14.0,8.6,79,30.22,10.0,NW,11.5,-,N/A,,Overcast,320,2014-01-03 04:35:00
11:55 PM,14.0,8.6,79,30.23,10.0,NNW,12.7,18.4,N/A,,Overcast,330,2014-01-03 04:55:00